Theta_e
315 314 315 315 315 313 314 314 317 317 315 321 324 325 325 325 328 332 338 338 335 339 338 337 343 346 348 349 349 348 347 347 348 348 348 348 348 348 348 346 343 345 350 353
313 311 312 314 313 312 311 317 313 315 318 322 323 323 326 329 329 330 331 331 335 335 335 340 339 344 347 349 350 349 349 349 349 349 350 350 350 350 351 350 349 348 348 350
314 310 312 316 314 317 325 325 323 325 325 324 324 324 324 326 325 329 334 334 333 334 334 337 342 342 346 348 350 351 350 351 351 351 352 353 353 353 353 353 353 353 352 352
311 312 318 315 322 321 326 327 325 325 325 324 324 323 322 323 323 325 336 334 334 337 342 349 356 352 340 347 350 352 352 352 352 353 353 355 356 356 356 356 356 356 355 356
312 312 313 315 325 326 326 326 324 325 324 324 323 323 326 321 322 323 330 339 341 341 342 344 349 351 344 348 351 353 353 353 353 354 355 354 355 355 355 356 356 356 356 356
311 322 323 318 324 322 322 328 324 324 324 323 322 327 324 322 321 322 323 336 339 339 338 339 342 345 347 350 353 354 354 354 354 354 354 354 355 355 355 355 356 355 355 355
319 322 322 321 322 321 328 324 322 323 322 322 323 322 321 320 321 321 322 331 337 337 336 336 334 333 338 341 345 349 348 347 348 348 350 352 355 358 355 351 351 352 353 353
320 326 327 321 320 325 322 319 321 322 321 321 321 321 320 320 321 321 322 325 335 335 334 333 332 332 334 336 338 341 343 344 345 344 341 343 343 347 354 359 360 358 355 352
321 320 317 318 318 318 317 319 321 320 320 320 321 321 321 321 321 321 322 324 329 336 333 332 331 331 332 335 337 338 339 338 341 342 341 341 341 342 346 353 355 357 359 359
320 318 318 318 317 318 319 323 325 323 324 324 324 323 321 320 320 321 321 323 325 335 331 330 331 330 331 334 335 337 340 342 342 342 341 341 341 339 340 342 347 355 359 356
317 317 318 320 320 324 325 324 324 324 325 325 324 324 323 322 321 323 322 323 328 333 330 330 331 331 333 335 336 338 337 340 341 340 337 336 334 331 333 334 336 341 347 349
322 318 321 325 324 323 322 323 325 325 325 325 324 324 323 324 322 322 323 327 332 329 329 330 331 332 334 335 337 338 339 341 339 337 335 333 331 326 326 331 338 345 345 341
320 320 321 321 323 321 322 324 326 326 324 322 323 323 323 323 323 322 324 331 329 328 329 329 328 330 332 338 337 338 338 338 337 334 333 331 328 329 328 326 332 334 336 336
316 320 326 326 324 326 326 326 326 323 323 325 325 325 325 324 323 324 329 329 328 328 328 327 328 328 332 333 333 332 331 331 331 328 325 324 324 324 323 320 317 318 326 330
321 327 329 327 326 326 325 324 325 325 325 326 325 325 324 324 326 329 329 328 327 326 327 330 330 330 331 330 329 328 325 322 323 322 321 320 319 319 318 318 317 317 318 320
323 329 327 325 324 323 325 323 325 326 326 325 325 325 326 326 325 324 324 325 325 324 325 326 327 328 328 327 325 324 321 320 321 320 320 319 319 318 318 318 318 318 319 319
330 331 328 329 328 326 325 323 324 326 325 326 324 325 324 322 322 322 322 323 323 322 326 327 326 326 326 325 324 323 323 322 321 321 321 320 319 318 318 317 317 315 316 317
328 329 327 326 326 324 324 323 324 325 325 325 325 323 323 322 321 321 321 320 320 321 322 323 324 324 324 324 324 323 321 321 320 319 318 317 317 317 317 316 315 315 314 315
328 326 324 324 324 324 324 323 324 324 324 324 322 321 320 319 319 319 319 319 318 318 319 321 321 324 323 323 322 321 320 318 317 317 317 317 316 315 315 316 316 315 316 317
328 326 325 324 323 323 323 321 321 320 320 320 319 319 319 318 318 318 318 317 318 318 318 319 320 321 322 322 322 319 316 316 317 317 316 315 316 317 317 318 318 317 316 315
326 325 324 322 321 320 319 318 319 319 318 319 319 318 318 318 318 318 318 317 317 318 318 319 319 320 319 318 315 314 315 314 316 316 315 315 315 315 315 315 315 315 315 314
325 324 322 320 320 320 318 318 318 318 318 318 318 317 316 316 315 313 315 317 319 318 317 316 316 316 316 316 315 315 315 315 315 314 314 314 314 314 315 314 313 313 313 312
323 322 321 320 320 320 320 320 319 318 317 317 316 316 314 312 313 314 314 317 318 317 318 317 316 316 315 315 315 314 313 312 312 312 313 312 312 311 312 312 312 312 312 312
322 322 321 322 320 317 314 312 313 313 312 312 313 313 313 312 313 314 315 315 315 314 313 313 313 313 314 313 313 313 315 316 316 316 316 315 315 315 315 314 312 310 310 310
321 322 323 322 316 311 310 310 310 310 311 311 312 312 313 313 313 314 314 314 314 314 316 317 317 318 317 317 317 317 317 316 314 313 312 312 314 315 314 313 311 310 310 310
324 325 324 320 319 320 315 309 308 308 310 310 310 311 313 314 315 315 316 316 317 317 317 317 317 317 317 316 316 316 316 315 313 312 312 312 312 312 312 312 311 311 311 312
326 326 325 324 322 319 312 310 310 309 310 311 311 313 315 316 316 317 317 318 318 317 318 318 318 318 318 318 315 315 315 315 315 315 314 312 312 312 312 312 312 312 312 311
Wind_Speed
2 2 1 4 6 8 8 6 7 8 7 5 11 16 17 17 17 13 8 10 8 5 4 6 14 23 27 27 29 37 35 33 36 37 34 33 34 34 34 34 37 38 37 36
0 1 3 6 7 8 6 2 6 5 2 5 10 11 12 17 18 20 19 12 4 2 5 6 10 17 22 26 31 33 34 36 35 32 32 33 33 34 33 34 36 34 35 38
4 4 7 6 3 2 3 2 2 2 3 9 14 16 16 17 18 19 21 19 9 3 3 2 7 15 21 25 25 28 31 32 30 31 31 33 32 31 33 34 35 35 35 35
3 3 3 5 5 2 3 4 4 4 5 8 10 15 13 5 17 21 22 19 6 6 10 17 20 14 20 21 26 27 23 23 23 29 30 28 29 31 31 31 33 35 35 35
3 3 5 1 4 3 1 4 4 3 3 6 12 11 3 10 17 17 18 15 12 16 18 22 21 13 11 15 15 16 15 19 21 22 24 24 26 28 29 28 30 32 33 33
3 3 6 4 4 5 2 5 4 0 4 6 7 8 5 12 17 17 21 19 19 20 22 24 24 26 27 19 22 17 9 6 11 17 19 22 24 24 25 28 31 31 33 35
2 4 6 3 6 1 3 4 4 3 4 4 3 5 12 15 12 16 16 17 19 17 19 21 22 25 25 23 23 14 8 12 8 6 9 4 4 8 14 21 25 27 30 33
2 1 6 6 3 2 6 5 6 7 6 9 8 10 10 11 9 9 12 18 17 15 10 14 18 18 16 16 12 14 7 3 2 2 7 1 4 7 8 11 16 21 25 29
7 5 5 5 6 7 6 8 11 7 11 9 10 8 9 10 8 7 11 16 19 12 15 5 10 11 11 11 10 6 4 10 14 11 7 6 8 10 9 7 9 12 16 21
2 5 6 6 6 6 6 9 16 16 15 14 16 14 11 9 8 6 10 14 17 11 13 16 11 9 9 9 11 12 14 11 8 7 7 8 7 8 10 10 10 11 17 20
5 7 8 7 8 12 13 15 15 16 15 16 15 15 14 12 11 10 13 16 15 10 8 12 15 15 11 11 10 4 3 4 3 3 3 2 4 7 9 8 12 14 15 18
5 5 6 15 17 20 18 16 16 15 15 16 15 15 14 13 14 11 13 11 7 5 3 6 12 14 14 14 14 15 12 9 5 2 2 1 1 1 11 7 9 8 10 13
5 8 14 16 18 18 16 17 15 14 15 16 20 16 16 13 15 15 11 7 9 6 3 3 6 7 10 11 10 9 8 7 7 6 5 3 2 4 1 11 11 8 6 2
8 8 9 8 7 15 16 15 16 15 17 16 14 20 20 12 13 8 5 9 10 9 8 6 5 10 12 9 7 6 3 2 5 1 3 2 3 4 6 11 14 20 21 18
8 8 10 14 15 14 10 8 9 10 10 9 10 4 9 10 6 9 7 5 4 3 5 16 15 14 11 7 6 6 5 4 7 8 5 6 9 15 18 18 17 21 24 26
11 12 12 8 11 8 9 5 5 8 9 5 5 5 9 14 13 13 9 6 6 1 9 18 15 10 6 8 10 11 10 11 13 13 10 11 14 21 20 14 21 21 23 20
9 9 12 15 10 10 9 7 4 4 8 8 4 11 16 16 15 11 14 19 17 16 22 19 9 8 9 12 17 17 17 17 17 19 13 16 17 19 19 15 19 18 21 17
8 8 7 6 6 8 9 11 9 7 6 11 13 14 12 12 9 14 17 16 19 22 19 12 9 13 15 17 19 21 22 17 16 16 18 17 20 14 17 18 22 23 21 25
3 4 7 6 7 6 7 7 10 11 12 15 16 14 16 16 16 15 18 21 18 16 12 12 13 14 15 17 21 22 21 20 20 22 22 21 19 18 19 20 21 22 20 14
5 8 8 11 11 10 8 12 14 14 14 17 18 19 17 16 16 21 25 15 14 11 16 17 18 19 17 15 19 19 18 19 18 18 20 19 19 21 20 18 15 13 10 9
7 9 11 11 11 14 16 16 14 15 17 18 19 16 15 16 20 19 16 9 9 13 15 17 19 20 17 19 20 20 17 17 18 18 17 15 14 13 10 8 8 7 6 4
9 10 12 11 12 14 16 17 18 16 15 17 18 16 15 13 13 13 12 11 16 18 17 20 21 19 18 17 17 16 15 14 13 11 10 8 6 5 5 4 3 2 2 3
13 13 11 10 9 9 12 13 14 13 12 13 13 13 14 12 14 14 7 12 14 16 18 18 17 16 15 15 15 15 14 12 11 9 8 7 6 5 4 4 3 2 1 1
14 12 9 6 6 9 8 9 12 13 14 13 13 12 13 16 17 15 15 16 16 16 16 15 15 14 14 13 13 12 11 10 9 7 5 3 3 4 5 4 4 4 5 4
14 7 5 8 9 8 11 12 14 13 15 16 15 14 14 14 15 14 15 15 15 15 15 12 12 11 11 10 7 5 5 5 6 6 6 6 3 1 1 1 3 2 6 7
10 8 9 9 8 9 12 14 15 13 16 16 13 13 14 14 14 13 13 12 11 9 8 7 7 6 7 7 5 3 2 1 0 1 3 3 3 3 3 5 7 8 11 14
12 11 11 11 12 13 15 18 20 15 15 16 14 11 11 10 9 7 6 5 4 4 4 4 4 4 3 1 1 2 3 5 6 8 9 9 9 9 10 12 14 15 17 19
Wind_Direction
259 279 286 247 233 230 203 202 181 250 212 13 338 319 316 313 327 331 275 276 267 268 279 253 231 203 198 202 194 190 194 199 207 217 223 225 230 233 236 241 243 244 246 246
273 89 216 253 255 246 239 271 258 300 274 358 322 320 337 349 343 334 325 310 226 238 351 315 235 217 203 199 194 190 192 201 211 209 215 224 230 234 237 241 246 247 246 248
267 345 328 314 275 143 144 85 238 181 337 327 340 341 331 338 349 338 327 324 324 143 235 273 329 255 212 203 192 192 199 202 203 208 211 219 224 229 237 242 247 250 252 251
215 15 232 265 347 34 124 133 78 50 336 329 319 310 295 323 352 343 342 347 2 27 18 11 1 312 221 199 192 190 203 202 206 206 209 215 220 227 234 238 243 249 252 256
149 203 287 211 325 331 43 264 145 187 300 318 335 320 295 17 353 341 342 342 354 34 39 30 22 38 122 146 158 173 188 199 207 212 213 218 222 231 238 240 244 249 252 255
132 180 217 234 236 236 129 275 181 66 343 326 357 348 266 342 337 331 336 340 350 13 38 39 34 54 57 56 81 85 103 142 208 215 218 225 233 235 240 245 248 251 255 257
180 225 285 203 261 1 124 254 243 215 227 247 267 221 280 308 310 319 321 330 342 34 42 30 44 54 52 45 40 42 63 89 111 120 124 154 220 239 245 247 250 249 251 258
107 172 278 187 338 118 228 268 249 275 249 247 235 258 263 281 292 313 318 328 330 333 35 45 41 40 54 52 28 28 25 348 50 20 73 338 265 255 246 250 253 257 258 260
184 219 232 205 219 255 267 265 285 254 278 248 258 250 255 263 269 289 305 317 315 313 309 12 63 45 35 24 19 9 32 4 348 2 3 346 326 308 295 271 265 264 265 267
27 274 256 289 267 257 264 283 294 290 283 282 277 268 248 249 261 274 290 298 305 290 306 311 354 35 15 10 1 6 17 8 352 346 1 358 326 303 292 282 269 275 262 256
265 291 291 277 281 290 303 294 286 282 282 278 277 273 259 260 255 263 275 285 291 257 284 310 333 346 2 4 1 351 14 343 359 28 39 358 337 337 327 298 271 260 260 266
237 245 278 298 302 297 294 285 284 286 280 273 266 259 258 252 249 244 260 267 247 243 254 311 328 332 344 350 347 343 353 350 345 6 336 266 235 354 28 10 349 327 261 266
280 300 301 287 287 281 278 281 287 285 281 282 275 261 251 238 232 230 252 220 186 209 243 294 302 323 350 354 347 335 322 336 340 344 325 302 236 217 116 52 58 66 59 62
263 289 295 289 270 293 293 286 284 280 290 294 285 273 237 218 196 201 201 189 171 187 193 128 45 15 5 3 2 0 2 147 137 199 292 245 160 130 107 86 63 60 80 107
276 281 269 285 287 285 283 280 297 310 316 334 1 0 158 156 156 127 135 139 147 132 79 66 49 22 7 15 46 46 43 48 95 106 114 131 124 109 101 94 91 85 86 84
294 300 299 287 278 304 318 313 316 336 339 331 51 34 95 105 100 102 107 107 97 159 95 68 59 57 73 72 80 77 83 83 83 84 89 95 100 96 86 82 88 91 92 97
298 301 306 311 322 334 343 344 335 10 355 7 80 79 70 76 80 89 84 84 79 62 69 73 79 96 98 98 93 80 71 69 75 81 79 82 78 86 97 94 95 89 92 102
271 284 322 329 337 350 4 17 23 13 18 57 60 75 72 67 65 59 69 84 77 74 79 94 98 96 92 93 95 90 86 80 83 86 91 89 97 98 105 107 101 98 96 101
13 25 21 24 22 28 36 42 41 45 54 86 82 79 80 77 73 73 73 64 62 65 67 92 97 96 96 94 97 95 94 95 97 103 103 103 102 106 105 107 115 112 111 106
44 52 51 45 45 46 55 55 58 59 72 91 93 86 77 68 71 73 72 59 59 76 90 89 90 83 89 99 102 97 97 97 102 108 106 101 103 108 110 116 118 120 120 116
60 62 62 55 51 47 53 53 65 66 67 79 87 85 82 78 82 91 84 74 87 92 97 97 93 91 98 107 106 105 93 93 98 102 102 96 95 93 95 95 98 101 106 115
75 67 64 58 59 60 63 73 78 80 83 89 91 95 101 94 88 80 85 97 95 89 99 100 98 100 104 106 107 102 97 95 95 99 101 102 101 106 113 118 128 142 191 222
85 78 72 65 53 61 78 75 82 88 88 94 92 87 76 70 74 83 70 95 101 98 95 93 97 100 101 99 99 100 99 97 97 101 109 116 118 118 113 106 113 97 32 295
100 106 104 89 91 88 66 70 90 92 92 90 92 96 92 84 72 77 83 89 92 91 89 91 89 89 91 95 100 101 98 87 76 84 90 101 110 116 123 112 85 66 44 17
121 109 82 96 87 86 94 97 96 94 93 92 94 91 90 92 94 92 90 90 93 93 89 85 77 76 79 80 86 103 95 70 70 72 59 54 56 223 207 302 348 305 334 335
105 91 102 102 99 92 107 112 101 103 106 96 88 90 91 91 92 93 92 87 82 75 69 64 61 60 65 63 70 84 103 104 71 351 347 11 18 357 314 299 298 299 301 303
92 91 106 99 87 89 93 100 99 100 105 104 98 98 99 97 92 87 74 62 40 16 1 357 5 5 348 306 309 295 282 291 299 296 290 294 293 289 286 284 282 287 295 305